Theta_e
304 303 302 302 303 304 304 303 304 305 306 307 307 307 314 313 311 313 314 313 312 327 325 340 339 343 348 352 350 344 352 360 362 360 359 356 358 358 353 354 352 346 340 339 341
302 302 301 301 303 303 303 303 304 306 307 307 308 310 317 315 313 315 317 317 312 326 327 340 342 343 352 353 354 356 357 358 353 353 354 354 358 358 356 356 347 340 338 338 341
301 301 301 301 302 302 302 302 303 305 307 308 308 313 318 313 317 319 320 318 314 331 325 337 339 343 347 350 355 358 359 354 351 350 351 351 358 355 357 359 348 341 339 338 341
302 302 302 302 302 301 301 303 305 307 308 310 308 316 312 314 322 320 321 320 315 327 331 332 328 328 335 341 344 359 356 357 349 348 352 350 355 358 357 356 346 338 337 338 340
302 302 302 302 302 302 302 305 308 309 309 310 309 316 313 315 312 317 322 321 314 331 325 324 327 327 333 335 340 353 353 351 355 354 347 345 356 358 357 352 340 341 338 338 338
303 303 303 303 303 302 304 308 310 309 312 313 313 315 316 311 313 320 320 321 320 320 321 316 320 323 327 329 342 341 343 345 346 348 341 345 347 355 355 349 346 345 341 339 339
304 305 305 305 304 303 305 311 309 307 320 310 317 316 316 312 315 314 327 319 317 317 317 317 317 322 321 331 330 334 341 340 343 345 346 347 359 360 354 350 350 349 346 343 345
303 304 304 306 306 303 306 311 309 310 318 315 319 317 317 313 318 321 326 323 326 318 317 317 317 320 322 323 323 334 334 341 342 348 344 345 353 358 353 352 351 350 348 347 347
301 302 303 306 307 304 309 308 308 314 318 320 320 317 319 318 320 311 315 321 324 323 318 318 317 317 322 323 321 325 336 344 343 345 347 347 359 357 353 353 353 350 349 349 347
301 301 302 305 307 305 309 308 307 318 318 318 321 315 314 311 309 308 315 321 318 318 317 316 315 315 317 319 330 326 336 337 339 342 348 348 352 358 354 354 354 352 350 349 349
301 302 302 306 307 307 308 307 301 302 304 304 304 311 308 308 308 310 311 321 318 316 317 316 316 318 318 321 323 329 336 339 338 338 344 349 350 360 355 354 354 353 351 350 350
301 301 301 308 306 307 309 304 306 307 301 304 305 305 306 306 307 309 311 321 322 320 319 319 318 317 318 320 322 322 325 330 332 335 336 339 349 358 356 354 353 353 352 350 349
301 301 301 308 306 308 308 308 308 307 301 303 306 307 307 307 308 309 310 316 321 324 321 322 323 321 323 322 322 322 323 326 330 334 335 342 351 358 357 355 353 351 350 349 349
301 301 303 309 306 306 307 308 309 305 302 307 308 308 307 307 310 311 312 312 318 323 323 322 323 324 323 325 323 321 323 326 328 333 337 334 348 362 360 358 355 354 352 350 349
301 301 306 308 307 306 308 309 309 304 306 310 306 308 306 305 307 311 311 313 315 317 319 322 323 324 325 325 324 325 323 325 326 328 332 332 334 349 355 359 357 355 354 352 350
301 301 309 309 307 308 308 311 305 305 309 308 306 305 305 306 308 309 311 315 315 318 317 319 320 323 324 326 326 325 325 325 326 326 331 330 333 332 354 353 356 352 350 350 352
301 304 311 309 306 309 311 302 304 305 306 306 305 304 304 308 308 309 313 316 317 321 320 319 321 320 325 326 326 327 323 326 329 329 333 329 331 334 346 349 350 352 349 346 350
300 306 311 311 310 309 308 303 307 308 305 305 305 305 305 309 309 308 308 314 315 316 319 320 322 322 323 328 328 327 328 327 331 333 333 325 329 329 334 345 347 348 348 346 348
301 307 311 310 309 309 301 305 307 306 306 305 305 306 306 308 309 308 309 314 315 314 316 320 321 316 318 324 329 329 330 326 323 316 322 328 320 320 325 338 346 348 348 348 344
303 305 309 309 308 306 302 306 307 306 306 306 307 307 307 304 305 309 308 312 315 313 313 315 319 317 320 321 326 331 325 329 319 330 323 321 321 326 322 323 335 348 348 346 345
305 304 309 308 306 299 303 303 305 306 307 307 307 307 306 305 306 309 308 312 313 313 313 314 316 320 320 321 323 325 330 326 327 321 332 320 323 318 320 322 323 338 344 344 347
302 304 308 307 304 299 304 306 307 306 306 307 305 305 305 306 308 308 312 312 312 311 315 314 318 324 322 321 319 320 326 318 332 327 317 320 327 321 320 320 319 323 335 339 345
302 301 307 306 305 304 304 308 308 308 307 307 306 306 306 306 308 311 312 311 312 312 313 314 319 315 322 318 318 318 320 321 321 315 318 330 330 319 320 323 323 322 321 333 341
302 304 301 299 301 305 306 308 310 309 309 308 307 306 306 306 306 308 311 312 309 309 315 312 315 314 319 316 314 314 315 315 317 319 320 321 324 321 320 321 322 323 323 324 339
298 302 302 303 303 304 305 307 310 312 310 307 307 310 309 306 306 307 308 307 309 312 311 311 312 312 311 312 312 312 313 314 320 321 322 322 319 320 319 322 328 329 322 322 336
303 303 300 303 304 307 306 308 309 309 309 311 311 311 308 305 304 304 306 306 307 308 310 310 311 311 313 312 312 314 315 319 321 325 319 320 320 319 338 341 343 341 328 326 342
303 304 305 308 308 308 309 310 310 309 310 311 310 310 310 309 306 303 303 302 305 308 309 310 311 312 312 313 315 324 323 325 328 324 325 321 324 334 344 346 346 346 341 332 338
Wind_Speed
26 27 28 28 27 25 25 23 22 22 21 22 22 20 16 15 15 8 9 17 23 10 19 23 14 12 13 4 4 4 2 3 5 6 2 4 4 6 3 8 4 4 7 18 37
29 30 31 31 29 27 26 24 22 22 22 24 21 18 14 11 12 15 34 21 19 19 23 24 11 14 5 5 3 3 2 5 6 8 1 2 8 11 6 12 4 11 21 32 34
32 33 34 34 32 30 27 25 25 26 27 23 18 13 12 4 4 8 8 22 27 30 25 22 17 8 4 3 5 5 4 3 2 9 3 5 12 9 12 3 5 22 26 28 30
35 36 37 37 35 33 30 28 27 26 28 20 11 8 5 1 2 1 9 8 34 32 24 17 8 8 6 6 6 3 9 10 3 9 5 7 9 6 10 6 13 23 31 29 24
36 36 38 38 36 33 30 28 30 32 26 15 5 3 1 1 10 4 10 14 36 34 21 12 13 7 8 6 4 12 11 8 15 15 10 4 12 6 12 10 21 21 24 26 22
37 38 39 38 37 35 29 27 30 30 22 10 5 4 3 4 2 7 4 25 30 33 15 9 10 8 6 4 13 6 14 17 15 12 6 8 5 7 6 18 22 22 24 22 23
38 40 40 40 39 36 28 26 27 25 16 5 9 3 0 15 4 14 8 23 36 35 11 21 9 10 6 2 12 11 9 9 14 10 2 9 3 4 17 18 23 21 19 19 19
40 41 43 41 39 36 26 23 24 14 13 4 8 3 7 5 12 12 12 5 23 23 13 22 18 6 3 4 5 5 5 3 9 7 6 7 3 13 17 21 21 21 19 20 20
43 44 43 45 40 33 24 24 17 5 8 9 6 4 10 13 8 14 9 8 19 21 12 10 6 4 1 2 4 3 4 7 8 10 4 8 4 14 18 19 19 20 20 19 17
46 49 48 47 40 26 25 13 12 4 6 0 1 2 5 8 18 27 12 17 5 8 1 3 4 5 2 4 9 6 4 4 6 4 11 11 6 18 19 19 21 19 19 20 20
47 47 51 46 34 16 23 4 5 5 4 5 10 4 11 14 18 5 10 9 6 5 8 6 6 17 29 18 3 4 4 6 6 6 8 15 9 20 22 16 18 19 18 20 20
47 48 52 41 22 15 12 5 7 5 9 7 12 7 14 6 5 6 9 7 8 9 7 5 17 21 7 7 12 8 5 6 10 5 6 6 17 18 22 26 25 25 22 22 19
48 48 49 32 7 12 7 6 12 14 1 8 5 4 7 2 3 6 2 3 6 12 15 10 4 14 10 12 13 13 13 9 9 5 3 4 7 14 19 6 12 16 18 19 23
48 47 42 26 3 13 8 19 28 1 4 5 7 7 12 4 3 6 9 6 5 17 15 14 17 15 16 17 11 12 12 14 14 3 4 5 4 11 16 22 20 20 21 21 22
48 48 34 12 9 6 12 26 24 4 3 5 5 6 8 7 9 10 20 5 5 11 8 16 15 19 19 23 16 14 6 9 8 3 3 9 3 7 15 19 22 23 24 24 24
48 48 24 6 9 9 21 31 3 4 3 5 4 8 8 8 5 10 7 6 3 6 14 9 9 16 23 12 15 4 4 3 1 3 10 17 8 5 13 25 22 22 24 25 25
47 39 12 8 6 24 27 5 4 3 7 5 5 7 6 8 8 12 8 15 6 7 7 9 22 10 6 18 10 11 7 4 4 5 13 7 7 13 22 25 28 28 29 26 23
46 29 11 17 32 23 9 5 4 3 3 3 3 2 5 8 4 8 7 5 14 4 2 5 11 19 13 12 15 12 15 6 8 4 8 6 8 6 14 18 26 25 29 22 22
46 23 7 28 32 9 5 5 3 2 3 4 2 4 5 5 2 7 6 2 6 9 4 7 7 9 16 14 17 8 19 12 5 3 2 4 5 6 7 13 17 21 22 20 18
29 13 5 32 25 4 5 2 0 3 2 3 3 1 2 4 6 2 4 6 3 10 2 2 6 5 12 10 11 15 8 7 4 10 5 4 5 7 12 12 14 19 21 21 22
8 4 13 34 3 5 3 4 3 3 0 2 4 2 3 1 2 2 1 6 9 10 4 4 2 9 8 7 25 8 11 4 6 5 13 2 8 8 9 14 19 19 23 22 23
7 3 22 25 4 2 2 5 5 5 2 2 1 4 2 2 3 2 1 1 6 7 3 4 4 6 10 16 16 9 11 8 10 13 1 3 16 5 11 13 14 16 19 19 23
4 3 11 13 4 4 6 5 3 4 3 2 2 3 3 4 2 3 3 3 7 3 1 3 2 6 9 1 6 4 5 7 5 4 9 13 17 6 4 4 6 10 17 16 20
2 4 4 4 2 3 5 5 4 5 1 4 4 1 0 3 4 3 4 6 8 4 8 2 4 6 6 9 13 11 23 18 9 8 7 14 19 14 14 10 7 7 11 18 23
2 1 0 4 2 2 3 5 9 5 5 5 3 4 1 4 3 5 5 2 6 6 4 3 5 6 11 19 21 22 23 24 13 12 14 11 12 12 8 6 7 10 11 17 26
2 2 2 3 3 5 3 2 7 5 4 6 3 10 7 5 7 7 6 5 6 3 3 3 3 3 14 20 17 18 18 19 20 19 6 5 12 3 3 3 11 12 9 11 18
2 0 1 3 2 2 2 2 6 11 8 9 4 10 12 9 5 7 7 6 7 8 5 4 2 3 7 8 12 6 7 11 4 17 4 9 4 4 6 12 13 15 12 6 19
Wind_Direction
4 2 2 360 356 350 346 345 348 347 343 339 332 323 314 306 304 286 236 224 212 184 174 169 182 182 173 206 211 151 217 211 163 166 21 105 166 151 48 149 177 154 139 143 151
5 4 3 360 356 351 349 349 351 348 342 337 329 321 318 311 299 248 259 234 198 174 157 160 176 177 179 205 223 175 202 228 178 146 26 173 166 159 165 179 67 91 111 142 150
6 4 2 360 356 351 350 351 348 344 340 330 325 323 316 324 286 244 345 223 192 175 174 165 154 152 189 171 218 185 225 206 213 140 155 237 173 172 152 211 196 148 143 154 157
6 4 1 359 356 353 350 348 347 346 338 336 312 320 324 67 278 64 4 195 178 180 163 168 146 154 169 203 206 239 247 253 156 210 222 255 146 155 164 206 151 157 152 155 163
4 2 0 358 355 353 349 347 344 343 334 321 296 285 138 246 253 284 350 156 170 178 172 166 169 159 182 192 231 238 261 260 246 252 244 226 181 174 200 129 138 148 158 161 164
4 2 359 356 354 352 348 348 341 343 340 310 156 166 143 255 312 0 215 159 176 175 185 165 185 170 180 213 192 202 228 255 265 250 235 172 158 114 138 138 146 157 164 168 170
2 1 359 355 353 350 346 351 341 343 352 10 151 133 199 239 135 321 187 177 181 180 176 202 177 179 181 159 258 264 293 294 274 217 241 116 143 159 149 155 153 163 168 172 176
3 360 357 355 352 349 345 347 335 347 10 43 143 149 250 296 329 341 180 214 190 195 200 195 196 209 192 313 359 181 165 254 275 219 189 152 228 136 154 155 165 171 173 177 182
1 358 356 355 351 349 348 339 328 28 30 91 128 154 276 331 349 347 308 196 190 209 229 189 148 204 8 221 7 297 191 203 285 224 182 178 117 165 168 164 173 181 179 181 188
358 357 354 351 350 351 355 348 343 65 31 318 227 302 293 321 317 313 323 190 149 143 170 198 160 167 148 148 211 190 183 205 228 244 192 201 177 168 180 178 181 186 187 188 192
356 356 351 347 348 360 7 16 15 357 36 234 274 245 268 287 300 323 330 190 115 126 171 204 183 203 211 206 192 179 186 194 237 228 187 219 172 183 183 189 191 189 196 195 198
354 355 350 349 353 9 23 64 106 296 306 258 269 244 269 281 312 344 350 169 180 189 165 141 216 220 214 179 214 246 251 247 288 216 181 232 217 195 181 196 193 188 194 199 197
352 353 348 351 14 1 5 10 349 347 156 300 271 298 299 137 222 309 305 311 210 206 193 200 219 196 206 200 202 220 219 229 235 47 222 114 246 197 202 191 202 203 206 206 200
350 350 345 346 0 338 315 337 334 349 58 283 352 4 358 325 319 20 354 223 273 213 207 228 232 195 194 216 189 214 206 223 252 115 222 161 239 207 206 204 198 202 202 208 206
346 346 340 324 304 302 325 333 334 128 356 8 12 324 345 46 289 350 328 359 257 274 176 215 205 215 211 211 191 227 164 202 233 196 279 250 133 265 209 210 208 206 208 209 206
344 346 338 329 291 321 330 330 87 46 230 8 43 332 25 357 11 322 346 11 25 322 264 246 224 200 220 222 212 161 194 185 74 151 248 248 166 244 190 217 212 211 215 213 202
344 348 348 318 335 331 332 8 45 115 347 12 332 352 38 344 15 13 31 38 17 23 15 283 244 260 197 208 204 198 129 231 237 201 237 223 196 216 202 215 210 210 212 215 207
343 348 5 16 354 340 356 48 86 15 63 333 312 330 30 20 50 2 13 10 31 27 44 21 240 216 222 207 197 205 203 169 188 178 221 182 209 236 199 215 217 217 217 210 200
342 348 12 354 353 345 59 48 174 337 279 340 22 43 341 16 16 32 25 74 34 24 82 358 268 322 290 212 192 200 209 199 95 4 154 223 240 290 194 224 218 217 214 207 205
338 330 326 351 347 84 72 241 208 341 276 74 104 28 305 348 5 71 348 63 19 23 313 73 299 284 303 265 230 206 168 192 206 206 235 279 224 224 175 200 211 220 220 213 205
359 11 350 345 350 55 131 220 292 17 125 130 187 229 252 5 249 227 129 104 17 3 0 39 165 300 334 224 217 207 202 203 157 178 222 270 250 201 205 189 191 207 222 211 202
352 1 355 351 51 40 35 311 296 315 343 345 172 198 204 268 255 271 110 39 56 353 7 62 298 282 252 286 302 289 197 165 204 215 272 190 251 253 214 201 177 203 217 213 205
347 280 358 19 59 338 322 304 294 327 309 309 230 143 179 216 253 223 167 108 103 90 135 51 6 313 305 357 21 354 326 212 223 98 198 221 256 221 236 230 233 190 212 218 209
16 355 337 35 77 47 339 287 312 328 59 345 261 123 350 246 237 227 226 177 106 83 92 123 200 202 259 314 313 291 309 307 299 198 194 220 253 247 280 282 278 248 257 229 206
40 322 170 327 338 317 240 272 306 337 340 353 322 81 359 264 259 208 195 237 86 103 103 113 244 218 255 271 275 273 274 281 283 251 204 224 232 245 254 296 295 273 238 223 205
68 53 348 258 287 312 301 301 313 332 317 302 310 324 306 232 221 240 206 180 206 148 126 196 268 356 289 268 252 248 261 255 249 256 205 222 242 180 75 52 4 343 289 209 189
45 49 123 259 271 264 257 290 285 302 274 252 293 293 279 275 253 251 223 222 218 159 149 188 241 5 266 334 316 200 336 312 112 36 322 208 281 240 48 44 11 356 336 244 193